Find Starlink 31053

NORAD ID: 58549 Int'l Des: 2023-192 Owner: SPXS Country: US Constellation: starlink operational
LEOCIRCULAR

リアルタイム位置

3D地球を読み込み中...

Starlink 31053について

説明を読み込み中...

次回通過

Passes for default location (London). Set your location on the main map for personalized predictions.

高度履歴

Loading altitude history...

軌道要素

1 58549U 23192U 26126.34766772 -.00000240 00000-0 40268-5 0 9999
2 58549 53.1614 154.8820 0001214 79.9733 280.1406 15.34378689134819
Epoch: May 6, 2026 • Age: 17 hours

現在のステータス

高度 479.6 km
速度 7.63 km/s
衛星直下点 -47.11°S, 145.44°W
打ち上げ日 Dec 8, 2023
運用期間 2.4 years
タイプ internet

技術仕様

分類 Payload
質量 730.00 kg
乾燥質量 700.00 kg
総質量 730.00 kg
長さ 0.30 m
直径 4.10 m
スパン 29.00 m
形状 Box + pan
製造者 SPXS
バスタイプ Starlink V2M
フェーズステータス In Orbit
所有者/国 SPXS/US

Most Searched